This demonstration page uses our WeatherBlox Daily Observations layout. Learn more.

Left ArrowRight Arrow

44.8408, -93.29828

Hourly Observations for March 15, 2022

Temp ( °F °C ) Dew Point ( °F °C ) Humidity (%) Winds ( mph kmh ) Pressure ( in mb ) Visibility ( mi km ) Precip ( " mm )
12:53 am 00:53 Partly Cloudy 28 -2.2 23 -5 81 81 Calm 30.27 1025 10 16 0.00 0.00
1:53 am 01:53 Partly Cloudy 28 -2.2 23 -5 81 81 Calm 30.25 1025 10 16 0.00 0.00
2:53 am 02:53 Mostly Clear 26 -3.3 23 -5 88 88 Calm 30.26 1025 8 13 0.00 0.00
3:53 am 03:53 Clear 26 -3.3 22 -5.6 84 84 Calm 30.25 1024 7 11 0.00 0.00
4:53 am 04:53 Clear 25 -3.9 22 -5.6 88 88 Calm 30.23 1024 9 14 0.00 0.00
5:53 am 05:53 Clear 26 -3.3 22 -5.6 84 84 Calm 30.23 1024 9 14 0.00 0.00
6:53 am 06:53 Clear 26 -3.3 22 -5.6 84 84 Calm 30.24 1024 9 14 0.00 0.00
7:53 am 07:53 Partly Cloudy with Mist and Fog 26 -3.3 23 -5 88 88 S 5 7 30.24 1024 6 10 0.00 0.00
8:53 am 08:53 Mostly Sunny 30 -1.1 25 -3.9 82 82 SW 5 7 30.23 1024 7 11 0.00 0.00
9:53 am 09:53 Mostly Sunny 34 1.1 28 -2.2 79 79 VRB 3 6 30.23 1024 8 13 0.00 0.00
10:53 am 10:53 Mostly Sunny 40 4.4 30 -1.1 68 68 S 6 9 30.23 1024 10 16 0.00 0.00
11:53 am 11:53 Mostly Sunny 43 6.1 31 -0.6 63 63 SW 12 19 30.21 1023 10 16 0.00 0.00
12:53 pm 12:53 Mostly Sunny 45 7.2 32 0 61 61 SW 10 17 30.18 1022 10 16 0.00 0.00
1:53 pm 13:53 Mostly Sunny 47 8.3 32 0 56 56 SSW 9 15 30.16 1021 10 16 0.00 0.00
2:53 pm 14:53 Mostly Sunny 50 10 32 0 50 50 SW 10 17 30.11 1020 10 16 0.00 0.00
3:53 pm 15:53 Mostly Cloudy 51 10.6 33 0.6 50 50 SSW 6 9 30.08 1019 10 16 0.00 0.00
4:53 pm 16:53 Mostly Cloudy 50 10 34 1.1 54 54 S 12 19 30.06 1018 10 16 0.00 0.00
5:53 pm 17:53 Mostly Cloudy 51 10.6 34 1.1 52 52 S 10 17 30.05 1018 10 16 0.00 0.00
6:53 pm 18:53 Mostly Cloudy 49 9.4 34 1.1 56 56 SSE 10 17 30.02 1017 10 16 0.00 0.00
7:53 pm 19:53 Mostly Cloudy 46 7.8 33 0.6 61 61 SSE 8 13 30.01 1016 10 16 0.00 0.00
8:53 pm 20:53 Mostly Cloudy 44 6.7 33 0.6 65 65 SSE 8 13 30.00 1016 10 16 0.00 0.00
9:53 pm 21:53 Partly Cloudy 45 7.2 33 0.6 63 63 S 9 15 29.99 1016 10 16 0.00 0.00
10:53 pm 22:53 Partly Cloudy 43 6.1 32 0 65 65 S 9 15 29.97 1015 10 16 0.00 0.00
11:53 pm 23:53 Partly Cloudy 40 4.4 32 0 73 73 SSE 7 11 29.96 1015 10 16 0.00 0.00

Powered by AerisWeather